TimeEDT,TemperatureF,Dew PointF,Humidity,Sea Level PressureIn,VisibilityMPH,Wind Direction,Wind SpeedMPH,Gust SpeedMPH,PrecipitationIn,Events,Conditions,WindDirDegrees,DateUTC
12:15 AM,73.4,73.4,100,-9999,10.0,Calm,Calm,-,N/A,,Overcast,0,2013-06-14 04:15:00
12:35 AM,73.4,73.4,100,-9999,10.0,Calm,Calm,-,N/A,,Overcast,0,2013-06-14 04:35:00
12:55 AM,73.4,73.4,100,-9999,10.0,WSW,3.5,-,N/A,,Overcast,250,2013-06-14 04:55:00
1:15 AM,73.4,73.4,100,-9999,10.0,SW,3.5,-,N/A,,Overcast,230,2013-06-14 05:15:00
1:35 AM,73.4,73.4,100,-9999,10.0,SW,4.6,-,N/A,,Overcast,230,2013-06-14 05:35:00
1:55 AM,73.4,73.4,100,-9999,10.0,SW,5.8,-,N/A,,Overcast,230,2013-06-14 05:55:00
2:15 AM,73.4,73.4,100,-9999,10.0,SSW,3.5,-,N/A,,Overcast,210,2013-06-14 06:15:00
2:35 AM,73.4,73.4,100,-9999,10.0,South,4.6,-,N/A,,Overcast,180,2013-06-14 06:35:00
2:55 AM,73.4,73.4,100,-9999,10.0,South,4.6,-,N/A,,Overcast,190,2013-06-14 06:55:00
3:15 AM,71.6,71.6,100,-9999,10.0,SSW,4.6,-,N/A,,Overcast,210,2013-06-14 07:15:00
3:35 AM,71.6,71.6,100,-9999,10.0,Calm,Calm,-,N/A,,Overcast,0,2013-06-14 07:35:00
3:55 AM,71.6,71.6,100,-9999,10.0,Calm,Calm,-,N/A,,Overcast,0,2013-06-14 07:55:00
4:15 AM,71.6,71.6,100,-9999,10.0,Calm,Calm,-,N/A,,Overcast,0,2013-06-14 08:15:00
4:35 AM,71.6,71.6,100,-9999,10.0,SW,3.5,-,N/A,,Overcast,230,2013-06-14 08:35:00
4:55 AM,71.6,71.6,100,-9999,10.0,SSW,3.5,-,N/A,,Overcast,210,2013-06-14 08:55:00
5:15 AM,71.6,71.6,100,-9999,10.0,SW,4.6,-,N/A,,Overcast,220,2013-06-14 09:15:00
5:35 AM,71.6,71.6,100,-9999,10.0,WSW,4.6,-,N/A,,Overcast,240,2013-06-14 09:35:00
5:55 AM,73.4,73.4,100,-9999,10.0,SW,3.5,-,N/A,,Overcast,230,2013-06-14 09:55:00
6:15 AM,71.6,71.6,100,-9999,10.0,SW,3.5,-,N/A,,Overcast,220,2013-06-14 10:15:00
6:35 AM,71.6,71.6,100,-9999,10.0,SW,3.5,-,N/A,,Overcast,220,2013-06-14 10:35:00
6:55 AM,73.4,73.4,100,-9999,10.0,SW,4.6,-,N/A,,Overcast,220,2013-06-14 10:55:00
7:15 AM,73.4,73.4,100,-9999,10.0,SW,4.6,-,N/A,,Overcast,220,2013-06-14 11:15:00
7:35 AM,75.2,75.2,100,-9999,10.0,SW,5.8,-,N/A,,Scattered Clouds,220,2013-06-14 11:35:00
7:55 AM,77.0,77.0,100,-9999,10.0,SW,5.8,-,N/A,,Clear,230,2013-06-14 11:55:00
8:15 AM,77.0,77.0,100,-9999,10.0,WSW,5.8,-,N/A,,Clear,250,2013-06-14 12:15:00
8:35 AM,78.8,78.8,100,-9999,10.0,WSW,8.1,-,N/A,,Clear,240,2013-06-14 12:35:00
8:55 AM,80.6,77.0,89,-9999,10.0,WSW,9.2,-,N/A,,Clear,240,2013-06-14 12:55:00
9:15 AM,80.6,75.2,84,-9999,10.0,West,8.1,-,N/A,,Scattered Clouds,260,2013-06-14 13:15:00
9:35 AM,82.4,73.4,74,-9999,10.0,West,11.5,-,N/A,,Scattered Clouds,260,2013-06-14 13:35:00
9:55 AM,82.4,73.4,74,-9999,10.0,WSW,10.4,17.3,N/A,,Scattered Clouds,240,2013-06-14 13:55:00
10:15 AM,82.4,71.6,70,-9999,10.0,WSW,8.1,-,N/A,,Scattered Clouds,240,2013-06-14 14:15:00
10:35 AM,82.4,69.8,66,-9999,10.0,West,12.7,18.4,N/A,,Scattered Clouds,280,2013-06-14 14:35:00
10:55 AM,86.0,69.8,58,-9999,10.0,West,9.2,-,N/A,,Scattered Clouds,270,2013-06-14 14:55:00
11:15 AM,86.0,66.2,51,-9999,10.0,WNW,16.1,20.7,N/A,,Scattered Clouds,290,2013-06-14 15:15:00
11:35 AM,87.8,66.2,49,-9999,10.0,West,13.8,19.6,N/A,,Scattered Clouds,260,2013-06-14 15:35:00
11:55 AM,86.0,64.4,48,-9999,10.0,WNW,11.5,18.4,N/A,,Clear,290,2013-06-14 15:55:00
12:15 PM,86.0,66.2,51,-9999,10.0,West,12.7,17.3,N/A,,Clear,260,2013-06-14 16:15:00
12:35 PM,86.0,68.0,55,-9999,10.0,West,15.0,19.6,N/A,,Scattered Clouds,280,2013-06-14 16:35:00
12:55 PM,87.8,68.0,52,-9999,10.0,West,12.7,20.7,N/A,,Scattered Clouds,270,2013-06-14 16:55:00
1:15 PM,86.0,66.2,51,-9999,10.0,WNW,11.5,18.4,N/A,,Clear,290,2013-06-14 17:15:00
1:35 PM,86.0,66.2,51,-9999,10.0,WNW,12.7,-,N/A,,Scattered Clouds,290,2013-06-14 17:35:00
1:55 PM,86.0,64.4,48,-9999,10.0,West,10.4,-,N/A,,Scattered Clouds,270,2013-06-14 17:55:00
2:15 PM,87.8,64.4,46,-9999,10.0,West,11.5,-,N/A,,Clear,260,2013-06-14 18:15:00
2:35 PM,87.8,66.2,49,-9999,10.0,WSW,10.4,17.3,N/A,,Clear,240,2013-06-14 18:35:00
2:55 PM,87.8,66.2,49,-9999,10.0,West,8.1,-,N/A,,Clear,280,2013-06-14 18:55:00
3:15 PM,87.8,64.4,46,-9999,10.0,WSW,9.2,-,N/A,,Clear,240,2013-06-14 19:15:00
3:35 PM,87.8,62.6,43,-9999,10.0,SW,10.4,-,N/A,,Clear,230,2013-06-14 19:35:00
3:55 PM,87.8,62.6,43,-9999,10.0,WSW,8.1,-,N/A,,Clear,250,2013-06-14 19:55:00
4:15 PM,89.6,60.8,38,-9999,10.0,West,8.1,-,N/A,,Clear,270,2013-06-14 20:15:00
4:35 PM,87.8,62.6,43,-9999,10.0,WSW,6.9,10.4,N/A,,Clear,250,2013-06-14 20:35:00
4:55 PM,87.8,60.8,40,-9999,10.0,West,5.8,-,N/A,,Clear,260,2013-06-14 20:55:00
5:15 PM,87.8,62.6,43,-9999,10.0,WNW,9.2,-,N/A,,Clear,290,2013-06-14 21:15:00
5:35 PM,87.8,62.6,43,-9999,10.0,West,9.2,-,N/A,,Scattered Clouds,270,2013-06-14 21:35:00
5:55 PM,86.0,64.4,48,-9999,10.0,WNW,11.5,-,N/A,,Scattered Clouds,300,2013-06-14 21:55:00
6:15 PM,86.0,64.4,48,-9999,10.0,West,10.4,-,N/A,,Clear,270,2013-06-14 22:15:00
6:35 PM,86.0,68.0,55,-9999,10.0,WNW,9.2,-,N/A,,Clear,300,2013-06-14 22:35:00
6:55 PM,84.2,68.0,58,-9999,10.0,West,9.2,-,N/A,,Clear,270,2013-06-14 22:55:00
7:15 PM,82.4,68.0,62,-9999,10.0,WNW,5.8,-,N/A,,Clear,300,2013-06-14 23:15:00
7:35 PM,82.4,68.0,62,-9999,10.0,West,10.4,-,N/A,,Clear,260,2013-06-14 23:35:00
7:55 PM,82.4,68.0,62,-9999,10.0,West,6.9,-,N/A,,Clear,260,2013-06-14 23:55:00
8:15 PM,80.6,69.8,70,-9999,10.0,West,8.1,-,N/A,,Clear,260,2013-06-15 00:15:00
8:35 PM,80.6,69.8,70,-9999,10.0,WSW,5.8,-,N/A,,Clear,250,2013-06-15 00:35:00
8:55 PM,78.8,71.6,78,-9999,10.0,WSW,3.5,-,N/A,,Clear,250,2013-06-15 00:55:00
9:15 PM,78.8,71.6,78,-9999,10.0,Calm,Calm,-,N/A,,Clear,0,2013-06-15 01:15:00
9:35 PM,78.8,73.4,83,-9999,10.0,SW,4.6,-,N/A,,Clear,230,2013-06-15 01:35:00
9:55 PM,78.8,73.4,83,-9999,10.0,Calm,Calm,-,N/A,,Clear,0,2013-06-15 01:55:00
10:15 PM,77.0,75.2,94,-9999,10.0,West,3.5,-,N/A,,Clear,260,2013-06-15 02:15:00
10:35 PM,78.8,77.0,94,-9999,10.0,SW,4.6,-,N/A,,Clear,230,2013-06-15 02:35:00
10:55 PM,77.0,77.0,100,-9999,10.0,Calm,Calm,-,N/A,,Clear,0,2013-06-15 02:55:00
11:15 PM,77.0,77.0,100,-9999,10.0,SW,5.8,-,N/A,,Clear,230,2013-06-15 03:15:00
11:35 PM,77.0,77.0,100,-9999,10.0,SSW,3.5,-,N/A,,Clear,200,2013-06-15 03:35:00
11:55 PM,77.0,77.0,100,-9999,10.0,WSW,3.5,-,N/A,,Clear,250,2013-06-15 03:55:00